Regional Weather Roundup
Issued by NWS Cleveland, OH

Home | Current Version | Previous Version | Graphics & Text | Print | Product List | Glossary On
Versions: 1 2 3 4 5 6 7 8 9 10 11 12 13 14 15 16 17 18 19 20 21 22 23 24 25 26 27 28 29 30 31 32 33 34 35 36 37 38 39 40 41 42 43 44 45 46 47 48 49 50
000
ASUS41 KCLE 260410
RWRCLE
OHIO REGIONAL WEATHER ROUNDUP
NATIONAL WEATHER SERVICE CLEVELAND, OH
1200 AM EDT SUN OCT 26 2014

NOTE: "FAIR" INDICATES FEW OR NO CLOUDS BELOW 12,000 FEET WITH NO
SIGNIFICANT WEATHER AND/OR OBSTRUCTIONS TO VISIBILITY.

OHZ001>008-015>018-024>027-034-035-043-044-260500-
   NORTHWEST OHIO

CITY           SKY/WX    TMP DP  RH WIND       PRES   REMARKS
DEFIANCE       CLEAR     53  35  50 W7        29.89R
FINDLAY        CLEAR     50  35  56 NW7       29.87R
TOLEDO EXPRESS CLEAR     50  33  52 W9        29.86S
TOLEDO EXEC    CLEAR     50  33  52 W10       29.86S
LIMA           CLEAR     55  36  48 NW8       29.89S
$$

OHZ009>014-019>023-028>033-038-089-260500-
   NORTHEAST OHIO

CITY           SKY/WX    TMP DP  RH WIND       PRES   REMARKS
CLE-HOPKINS    CLEAR     56  36  47 W14G22    29.83S
CLE-LAKEFRONT  CLEAR     58  44  60 W20       29.80R
CUY CO. ARPT   NOT AVBL
LORAIN-ELYRIA  CLEAR     56  34  43 NW14      29.83S
ASHTABULA      CLEAR     56  38  50 NW10G23   29.77R
AKRON-CANTON   CLEAR     56  30  37 NW13G23   29.82R
WOOSTER        CLEAR     57  31  37 NW14      29.84S
MANSFIELD      CLEAR     53  33  46 W7        29.86S
YOUNGSTOWN     CLEAR     56  34  43 NW13G21   29.78R
$$

OHZ042-051>053-060>062-070>072-077>081-260500-
  SOUTHWEST OHIO

CITY           SKY/WX    TMP DP  RH WIND       PRES   REMARKS
CINC-COVINGTON CLEAR     62  50  64 W10       29.93R
CINC-LUNKEN    CLEAR     65  51  60 W8        29.93R
HAMILTON       CLEAR     49  47  93 CALM      29.94R
DAYTON         CLEAR     59  46  62 W10       29.93R
WRIGHT-PAT AFB CLEAR     58  46  64 W8        29.91R
DAYTON GENERAL CLEAR     60  45  57 W6        29.91S
WILMINGTON     CLEAR     60  48  64 W12       29.91S
$$

OHZ036-037-039>041-045>050-054>059-063>069-073>076-082>088-260500-
  CENTRAL AND SOUTHEAST OHIO

CITY           SKY/WX    TMP DP  RH WIND       PRES   REMARKS
COLUMBUS       PTCLDY    56  43  61 NW8       29.88R
OSU AIRPORT    CLEAR     54  44  69 NW8       29.88R
BOLTON FIELD   CLEAR     56  46  69 W6        29.89S
RICKENBACK AFB CLEAR     52  46  80 W3        29.88R
NEWARK         CLEAR     57  35  43 NW6       29.87R
MARION         CLEAR     53  34  48 W7        29.88R
LANCASTER      CLEAR     46  42  86 CALM      29.88S
ZANESVILLE     CLEAR     57  32  38 W8        29.86S
NEW PHILLY     CLEAR     59  34  39 NW9       29.84S
$$



USA.gov is the U.S. government's official web portal to all federal, state and local government web resources and services.